Regional Weather Roundup
Issued by NWS

Home | Current Version | Previous Version | Graphics & Text | Print | Product List | Glossary On
Versions: 1 2 3 4 5 6 7 8 9 10 11 12 13 14 15 16 17 18 19 20 21 22 23 24 25 26 27 28 29 30 31 32 33 34 35 36 37 38 39 40 41 42 43 44 45 46 47 48 49 50
000
ASUS44 KMEG 021410
RWRTN
TENNESSEE HOURLY STATE WEATHER ROUNDUP
NATIONAL WEATHER SERVICE MEMPHIS TN
800 AM CST MON MAR 02 2015

TNZ002-004-019-021-049-052-054-088>092-021500-
WEST TENNESSEE

CITY           SKY/WX    TMP DP  RH WIND       PRES   REMARKS
MEMPHIS INTL   CLOUDY    35  27  72 NE16G25   30.45F WCI  25
NWS MEMPHIS      N/A     33 N/A N/A MISG        N/A
JACKSON        CLOUDY    33  26  75 NE15      30.49R WCI  23
DYERSBURG      SUNNY     30  14  51 NE12G20   30.53R WCI  21
UNION CITY     SUNNY     28  23  80 NE10      30.51R WCI  19
PARIS          SUNNY     27  21  80 NE13      30.49S WCI  16
LEXINGTON      CLOUDY    30  27  86 NE9       30.45S WCI  22
SAVANNAH       CLOUDY    34  34 100 NE9       30.46R WCI  26
$$

TNZ008-025-027-028-033-062-065-066-021500-
NORTH MIDDLE TENNESSEE

CITY           SKY/WX    TMP DP  RH WIND       PRES   REMARKS
NASHVILLE      CLOUDY    33  29  85 N13       30.49R WCI  24
CLARKSVILLE    SUNNY     30  22  72 NE12      30.52R WCI  20
SMYRNA         CLOUDY    33  31  93 N10       30.50R WCI  25
COOKEVILLE     CLOUDY    34  32  93 VRB6      30.42F WCI  29
CROSSVILLE     CLOUDY    33  31  92 NE9       30.39S FOG     WCI  25
$$

TNZ061-075-076-078-094-096-097-021500-
SOUTH MIDDLE TENNESSEE

CITY           SKY/WX    TMP DP  RH WIND       PRES   REMARKS
FAYETTEVILLE   CLOUDY    34  34 100 NE10        N/A  WCI  26
TULLAHOMA      CLOUDY    34  34 100 N7        30.42R WCI  28
WINCHESTER     CLOUDY    36  36 100 N7        30.41F WCI  30
MCMINNVILLE    CLOUDY    36  34  93 N6        30.43S WCI  31
COLUMBIA         N/A    N/A N/A N/A NE9       30.44F
SHELBYVILLE    CLOUDY    36  36 100 N8        30.46R WCI  29
$$

TNZ017-018-042-046-047-021500-
NORTHEAST TENNESSEE

CITY           SKY/WX    TMP DP  RH WIND       PRES   REMARKS
TRI CITIES     CLOUDY    41  40  96 N3        30.38R FOG
ELIZABETHTON   DRIZZLE   39  39 100 CALM      30.36R
$$

TNZ012-013-036-069-073-074-021500-
CENTRAL EAST TENNESSEE

CITY           SKY/WX    TMP DP  RH WIND       PRES   REMARKS
KNOXVILLE      CLOUDY    41  37  86 NE9       30.42R
OAK RIDGE      CLOUDY    41  36  82 VRB5      30.44R
GATLINBURG     CLOUDY    39  37  93 W3        30.41R
MORRISTOWN     CLOUDY    39  36  87 NW5       30.40R
$$

TNZ083-085-099-021500-
SOUTHEAST TENNESSEE

CITY           SKY/WX    TMP DP  RH WIND       PRES   REMARKS
CHATTANOOGA    CLOUDY    45  41  86 N12       30.40R
$$

SKY/WX REPORTED AS FAIR MEANS FEW OR NO CLOUDS BELOW
12 THOUSAND FEET.



USA.gov is the U.S. government's official web portal to all federal, state and local government web resources and services.